JAF74 EBBR-EDDM

Flight info

Callsign JAF74
Flight time N/A
Altitude 35000
Route SOPOK Y863 ROPUV L607 EMGOD DCT MOVUM T109 HAREM T104 ROKIL ROKIL1A
Aircraft B763/H-SDE3FGHIM3RWXY/LB1

Departure

Time 2026-04-30 13:54
Airport Brussels Airport (EBBR)

Arrival

Time N/A
Airport Munich Airport (EDDM)
Time Latitude Longitude Altitude Speed Heading
2026-04-30 13:09 50.89422 4.48872 202 ft 0 kts 294°
2026-04-30 13:35 50.89421 4.48872 192 ft 0 kts 294°
2026-04-30 13:36 50.89421 4.48873 192 ft 0 kts 294°
2026-04-30 13:41 50.89421 4.48874 192 ft 0 kts 294°
2026-04-30 13:45 50.89419 4.48903 208 ft 3 kts 264°
2026-04-30 13:46 50.89422 4.48931 201 ft 2 kts 260°
2026-04-30 13:46 50.89428 4.48960 204 ft 3 kts 237°
2026-04-30 13:46 50.89434 4.48971 207 ft 0 kts 224°
2026-04-30 13:48 50.89423 4.48954 204 ft 4 kts 224°
2026-04-30 13:49 50.89400 4.48918 194 ft 7 kts 224°
2026-04-30 13:49 50.89352 4.48847 196 ft 12 kts 224°
2026-04-30 13:49 50.89279 4.48737 191 ft 17 kts 224°
2026-04-30 13:49 50.89224 4.48582 193 ft 18 kts 249°
2026-04-30 13:50 50.89171 4.48355 192 ft 27 kts 250°
2026-04-30 13:50 50.89078 4.47966 195 ft 8 kts 238°
2026-04-30 13:50 50.89070 4.47951 189 ft 0 kts 227°
2026-04-30 13:52 50.89069 4.47949 188 ft 2 kts 227°
2026-04-30 13:52 50.89051 4.47925 188 ft 3 kts 211°
2026-04-30 13:52 50.89017 4.47911 191 ft 8 kts 176°
2026-04-30 13:53 50.88965 4.47936 201 ft 8 kts 147°
2026-04-30 13:53 50.88940 4.48022 191 ft 14 kts 102°
2026-04-30 13:53 50.88958 4.48293 190 ft 43 kts 70°
2026-04-30 13:53 50.89126 4.49005 191 ft 98 kts 69°
2026-04-30 13:54 50.89429 4.50314 192 ft 148 kts 70°
2026-04-30 13:54 50.89814 4.52063 296 ft 182 kts 71°
2026-04-30 13:54 50.90258 4.53946 1037 ft 184 kts 72°
2026-04-30 13:54 50.90782 4.55850 1470 ft 201 kts 64°
2026-04-30 13:55 50.91580 4.57850 1372 ft 217 kts 59°
2026-04-30 13:55 50.92411 4.59818 1735 ft 217 kts 60°
2026-04-30 13:55 50.93191 4.61915 2050 ft 225 kts 68°
2026-04-30 13:55 50.93731 4.64227 2678 ft 217 kts 76°
2026-04-30 13:56 50.94155 4.66518 3395 ft 221 kts 77°
2026-04-30 13:56 50.94561 4.68758 3681 ft 242 kts 77°
2026-04-30 13:56 50.94578 4.68847 3696 ft 242 kts 77°
2026-04-30 13:56 50.94764 4.69832 3909 ft 241 kts 77°
2026-04-30 13:57 50.95274 4.72408 4511 ft 243 kts 77°
2026-04-30 13:57 50.95611 4.75035 5069 ft 252 kts 97°
2026-04-30 13:57 50.95071 4.77774 5230 ft 273 kts 123°
2026-04-30 13:57 50.93879 4.80231 5750 ft 285 kts 130°
2026-04-30 13:58 50.92462 4.82554 6046 ft 300 kts 139°
2026-04-30 13:58 50.88857 4.85865 7205 ft 312 kts 159°
2026-04-30 13:58 50.86749 4.86866 7768 ft 321 kts 162°
2026-04-30 13:59 50.84575 4.87745 8298 ft 321 kts 164°
2026-04-30 13:59 50.82499 4.88489 8745 ft 294 kts 165°
2026-04-30 13:59 50.80521 4.89150 8752 ft 288 kts 165°
2026-04-30 13:59 50.78551 4.89537 8732 ft 278 kts 184°
2026-04-30 14:00 50.76769 4.88675 8747 ft 269 kts 207°
2026-04-30 14:00 50.74642 4.83768 7704 ft 295 kts 262°
2026-04-30 14:00 50.74740 4.80536 7437 ft 290 kts 275°
2026-04-30 14:01 50.74945 4.77475 7505 ft 276 kts 273°
2026-04-30 14:01 50.75106 4.74391 7067 ft 285 kts 272°
2026-04-30 14:01 50.75182 4.71259 6646 ft 284 kts 258°
2026-04-30 14:01 50.74690 4.68331 6238 ft 278 kts 246°
2026-04-30 14:02 50.73987 4.65434 5840 ft 276 kts 243°